| time (UTC) | temp C | wind direction | speed KPH | gust KPH | rain 1hr cm | rain 24hr cm | rain mn cm | humidity % | barometer mb |
| 20260506211452 | 36 | 358 | 6.4 | 22.5 | 0.00 | 0.00 | 0.00 | 100 | 1011.4 |
| 20260506210953 | 36 | 40 | 9.7 | 22.5 | 0.00 | 0.00 | 0.00 | 100 | 1011.5 |
| 20260506210452 | 36 | 7 | 11.3 | 29.0 | 0.00 | 0.00 | 0.00 | 100 | 1011.5 |
| 20260506205953 | 36 | 319 | 14.5 | 29.0 | 0.00 | 0.00 | 0.00 | 100 | 1011.6 |
| 20260506205453 | 36 | 329 | 9.7 | 22.5 | 0.00 | 0.00 | 0.00 | 100 | 1011.8 |
| 20260506205225 | 36 | 5 | 11.3 | 22.5 | 0.00 | 0.00 | 0.00 | 100 | 1011.6 |
| 20260506204452 | 36 | 298 | 14.5 | 24.1 | 0.00 | 0.00 | 0.00 | 100 | 1011.7 |
| 20260506203953 | 36 | 310 | 9.7 | 24.1 | 0.00 | 0.00 | 0.00 | 100 | 1011.8 |
| 20260506203724 | 36 | 21 | 8.0 | 19.3 | 0.00 | 0.00 | 0.00 | 100 | 1011.8 |
| 20260506202953 | 36 | 358 | 8.0 | 17.7 | 0.00 | 0.00 | 0.00 | 100 | 1011.7 |
| 20260506202452 | 37 | 358 | 6.4 | 19.3 | 0.00 | 0.00 | 0.00 | 100 | 1011.6 |
| 20260506201952 | 37 | 40 | 9.7 | 22.5 | 0.00 | 0.00 | 0.00 | 100 | 1011.5 |
| 20260506201452 | 37 | 344 | 9.7 | 24.1 | 0.00 | 0.00 | 0.00 | 100 | 1011.6 |
| 20260506200953 | 37 | 358 | 12.9 | 24.1 | 0.00 | 0.00 | 0.00 | 100 | 1011.5 |
| 20260506200453 | 37 | 355 | 11.3 | 22.5 | 0.00 | 0.00 | 0.00 | 100 | 1011.5 |
| 20260506195953 | 37 | 67 | 9.7 | 29.0 | 0.00 | 0.00 | 0.00 | 100 | 1011.3 |
| 20260506195451 | 37 | 345 | 11.3 | 29.0 | 0.00 | 0.00 | 0.00 | 100 | 1011.4 |
| 20260506194950 | 37 | 29 | 6.4 | 25.7 | 0.00 | 0.00 | 0.00 | 100 | 1011.2 |
| 20260506194450 | 37 | 352 | 11.3 | 25.7 | 0.00 | 0.00 | 0.00 | 100 | 1011.2 |
| 20260506194221 | 37 | 42 | 11.3 | 24.1 | 0.00 | 0.00 | 0.00 | 100 | 1011.1 |
| 20260506193449 | 37 | 2 | 12.9 | 25.7 | 0.00 | 0.00 | 0.00 | 100 | 1011.0 |
| 20260506193221 | 37 | 37 | 16.1 | 25.7 | 0.00 | 0.00 | 0.00 | 100 | 1011.1 |
| 20260506192450 | 37 | 344 | 6.4 | 24.1 | 0.00 | 0.00 | 0.00 | 100 | 1011.1 |
| 20260506192221 | 37 | 358 | 9.7 | 24.1 | 0.00 | 0.00 | 0.00 | 100 | 1011.2 |
| 20260506191451 | 37 | 22 | 12.9 | 24.1 | 0.00 | 0.00 | 0.00 | 100 | 1011.2 |
| 20260506190950 | 37 | 358 | 14.5 | 24.1 | 0.00 | 0.00 | 0.00 | 100 | 1011.2 |
| 20260506190450 | 38 | 16 | 1.6 | 12.9 | 0.00 | 0.00 | 0.00 | 100 | 1011.2 |
| 20260506185948 | 38 | 11 | 6.4 | 12.9 | 0.00 | 0.00 | 0.00 | 100 | 1011.4 |
| 20260506185448 | 38 | 303 | 0.0 | 14.5 | 0.00 | 0.00 | 0.00 | 100 | 1011.3 |
| 20260506184947 | 38 | 16 | 8.0 | 16.1 | 0.00 | 0.00 | 0.00 | 100 | 1011.2 |
| 20260506184444 | 38 | 338 | 6.4 | 16.1 | 0.00 | 0.00 | 0.00 | 100 | 1011.2 |
| 20260506183943 | 38 | 262 | 6.4 | 12.9 | 0.00 | 0.00 | 0.00 | 100 | 1011.1 |
| 20260506183443 | 38 | 345 | 8.0 | 12.9 | 0.00 | 0.00 | 0.00 | 100 | 1011.1 |
| 20260506183214 | 38 | 2 | 0.0 | 12.9 | 0.00 | 0.00 | 0.00 | 100 | 1011.0 |
| 20260506182443 | 39 | 70 | 8.0 | 12.9 | 0.00 | 0.00 | 0.00 | 100 | 1011.0 |
| 20260506182214 | 38 | 358 | 9.7 | 12.9 | 0.00 | 0.00 | 0.00 | 100 | 1011.0 |
| 20260506181442 | 38 | 317 | 8.0 | 12.9 | 0.00 | 0.00 | 0.00 | 100 | 1011.1 |
| 20260506180949 | 38 | 7 | 4.8 | 9.7 | 0.00 | 0.00 | 0.00 | 100 | 1011.1 |
| 20260506180943 | 38 | 1 | 3.2 | 12.9 | 0.00 | 0.00 | 0.00 | 100 | 1011.1 |
| 20260506175943 | 38 | 326 | 1.6 | 12.9 | 0.00 | 0.00 | 0.00 | 100 | 1010.9 |
| 20260506175443 | 38 | 5 | 4.8 | 12.9 | 0.00 | 0.00 | 0.00 | 100 | 1010.8 |
| 20260506174943 | 38 | 32 | 3.2 | 9.7 | 0.00 | 0.00 | 0.00 | 100 | 1010.8 |
| 20260506174443 | 38 | 315 | 0.0 | 11.3 | 0.00 | 0.00 | 0.00 | 100 | 1010.8 |
| 20260506173944 | 38 | 67 | 0.0 | 12.9 | 0.00 | 0.00 | 0.00 | 100 | 1010.7 |
| 20260506173443 | 38 | 46 | 3.2 | 14.5 | 0.00 | 0.00 | 0.00 | 100 | 1010.7 |
| 20260506172943 | 37 | 149 | 4.8 | 14.5 | 0.00 | 0.00 | 0.00 | 100 | 1010.7 |
| 20260506172444 | 37 | 326 | 6.4 | 14.5 | 0.00 | 0.00 | 0.00 | 100 | 1010.8 |
| 20260506171945 | 37 | 36 | 3.2 | 14.5 | 0.00 | 0.00 | 0.00 | 100 | 1010.9 |
| 20260506171445 | 37 | 0 | 1.6 | 16.1 | 0.00 | 0.00 | 0.00 | 100 | 1010.9 |
| 20260506171216 | 37 | 358 | 1.6 | 16.1 | 0.00 | 0.00 | 0.00 | 100 | 1010.8 |
| 20260506170442 | 36 | 358 | 9.7 | 20.9 | 0.00 | 0.00 | 0.00 | 100 | 1010.9 |
| 20260506170212 | 36 | 40 | 6.4 | 20.9 | 0.00 | 0.00 | 0.00 | 100 | 1010.8 |
| 20260506165712 | 36 | 49 | 0.0 | 16.1 | 0.00 | 0.00 | 0.00 | 100 | 1010.9 |
| 20260506164939 | 36 | 35 | 4.8 | 17.7 | 0.00 | 0.00 | 0.00 | 100 | 1010.9 |
| 20260506164439 | 36 | 45 | 6.4 | 17.7 | 0.00 | 0.00 | 0.00 | 100 | 1011.1 |
| 20260506163939 | 35 | 82 | 1.6 | 20.9 | 0.00 | 0.00 | 0.00 | 100 | 1011.6 |
| 20260506163438 | 35 | 70 | 6.4 | 20.9 | 0.00 | 0.00 | 0.00 | 100 | 1011.6 |
| 20260506162931 | 36 | 52 | 6.4 | 16.1 | 0.00 | 0.00 | 0.00 | 100 | 1011.6 |
| 20260506162702 | 36 | 358 | 8.0 | 19.3 | 0.00 | 0.00 | 0.00 | 100 | 1011.5 |
| 20260506161925 | 35 | 326 | 11.3 | 22.5 | 0.00 | 0.00 | 0.00 | 100 | 1011.6 |
| 20260506161425 | 35 | 343 | 9.7 | 24.1 | 0.00 | 0.00 | 0.00 | 100 | 1011.8 |
| 20260506161151 | 35 | 357 | 6.4 | 24.1 | 0.00 | 0.00 | 0.00 | 100 | 1012.5 |
| 20260506160651 | 35 | 4 | 8.0 | 27.4 | 0.00 | 0.00 | 0.00 | 100 | 1012.4 |
| 20260506155921 | 35 | 317 | 14.5 | 27.4 | 0.00 | 0.00 | 0.00 | 100 | 1012.3 |
| 20260506155421 | 35 | 1 | 12.9 | 22.5 | 0.00 | 0.00 | 0.00 | 100 | 1012.1 |
| 20260506154921 | 35 | 340 | 1.6 | 24.1 | 0.00 | 0.00 | 0.00 | 100 | 1012.2 |
| 20260506154418 | 35 | 43 | 9.7 | 24.1 | 0.00 | 0.00 | 0.00 | 100 | 1012.1 |
| 20260506153917 | 35 | 49 | 8.0 | 27.4 | 0.00 | 0.00 | 0.00 | 100 | 1011.9 |
| 20260506153414 | 35 | 358 | 11.3 | 29.0 | 0.00 | 0.00 | 0.00 | 100 | 1011.9 |
| 20260506152913 | 35 | 1 | 14.5 | 29.0 | 0.00 | 0.00 | 0.00 | 100 | 1011.7 |
| 20260506152643 | 36 | 340 | 9.7 | 22.5 | 0.00 | 0.00 | 0.00 | 100 | 1011.7 |
| 20260506151912 | 36 | 18 | 9.7 | 22.5 | 0.00 | 0.00 | 0.00 | 100 | 1011.4 |
| 20260506151413 | 36 | 329 | 11.3 | 38.6 | 0.00 | 0.00 | 0.00 | 100 | 1011.1 |
| 20260506150913 | 36 | 348 | 14.5 | 38.6 | 0.00 | 0.00 | 0.00 | 100 | 1011.2 |
| 20260506150643 | 37 | 340 | 16.1 | 24.1 | 0.00 | 0.00 | 0.00 | 100 | 1011.1 |
| 20260506145914 | 38 | 154 | 0.0 | 0.0 | 0.00 | 0.00 | 0.00 | 100 | 1010.7 |
| 20260506145412 | 38 | 154 | 0.0 | 6.4 | 0.00 | 0.00 | 0.00 | 100 | 1010.4 |
| 20260506144911 | 38 | 154 | 0.0 | 9.7 | 0.00 | 0.00 | 0.00 | 100 | 1010.2 |
| 20260506144411 | 38 | 146 | 0.0 | 9.7 | 0.00 | 0.00 | 0.00 | 100 | 1009.7 |
| 20260506143901 | 38 | 75 | 1.6 | 11.3 | 0.00 | 0.00 | 0.00 | 100 | 1009.5 |
| 20260506143401 | 38 | 130 | 3.2 | 11.3 | 0.00 | 0.00 | 0.00 | 100 | 1009.5 |
| 20260506142905 | 38 | 109 | 0.0 | 11.3 | 0.00 | 0.00 | 0.00 | 100 | 1009.3 |
| 20260506142901 | 38 | 109 | 0.0 | 9.7 | 0.00 | 0.00 | 0.00 | 100 | 1009.4 |
| 20260506142355 | 38 | 151 | 0.0 | 11.3 | 0.00 | 0.00 | 0.00 | 100 | 1009.1 |
| 20260506141346 | 38 | 151 | 0.0 | 9.7 | 0.00 | 0.00 | 0.00 | 100 | 1009.0 |
| 20260506141108 | 38 | 168 | 3.2 | 9.7 | 0.00 | 0.00 | 0.00 | 100 | 1009.1 |
| 20260506140338 | 38 | 149 | 0.0 | 6.4 | 0.00 | 0.00 | 0.00 | 100 | 1009.3 |
| 20260506135829 | 37 | 149 | 0.0 | 6.4 | 0.00 | 0.00 | 0.00 | 100 | 1009.5 |
| 20260506135325 | 38 | 123 | 0.0 | 0.0 | 0.00 | 0.00 | 0.00 | 100 | 1009.6 |
| 20260506134819 | 37 | 123 | 0.0 | 0.0 | 0.00 | 0.00 | 0.00 | 100 | 1009.3 |
| 20260506134545 | 37 | 123 | 0.0 | 6.4 | 0.00 | 0.00 | 0.00 | 100 | 1009.0 |
| 20260506133814 | 37 | 123 | 0.0 | 6.4 | 0.00 | 0.00 | 0.00 | 100 | 1009.0 |
| 20260506133258 | 37 | 150 | 0.0 | 0.0 | 0.00 | 0.00 | 0.00 | 2 | 1009.1 |
| 20260506132747 | 37 | 150 | 0.0 | 8.0 | 0.00 | 0.00 | 0.00 | 2 | 1009.0 |
| 20260506132245 | 37 | 150 | 0.0 | 8.0 | 0.00 | 0.00 | 0.00 | 3 | 1008.9 |
| 20260506131744 | 37 | 105 | 0.0 | 8.0 | 0.00 | 0.00 | 0.00 | 4 | 1009.0 |
| 20260506131243 | 37 | 160 | 1.6 | 8.0 | 0.00 | 0.00 | 0.00 | 4 | 1008.8 |
| 20260506130740 | 37 | 115 | 1.6 | 8.0 | 0.00 | 0.00 | 0.00 | 4 | 1008.8 |
| 20260506130233 | 37 | 133 | 1.6 | 9.7 | 0.00 | 0.00 | 0.00 | 5 | 1008.8 |
| 20260506125727 | 37 | 98 | 3.2 | 6.4 | 0.00 | 0.00 | 0.00 | 6 | 1008.8 |
| 20260506125213 | 37 | 136 | 0.0 | 0.0 | 0.00 | 0.00 | 0.00 | 7 | 1008.7 |
| 20260506124939 | 37 | 136 | 0.0 | 4.8 | 0.00 | 0.00 | 0.00 | 10 | 1008.6 |
| 20260506124202 | 37 | 136 | 0.0 | 4.8 | 0.00 | 0.00 | 0.00 | 15 | 1008.5 |
| 20260506123658 | 37 | 185 | 0.0 | 0.0 | 0.00 | 0.00 | 0.00 | 22 | 1008.5 |
| 20260506123157 | 37 | 185 | 0.0 | 0.0 | 0.00 | 0.00 | 0.00 | 23 | 1008.5 |
| 20260506122657 | 37 | 185 | 0.0 | 0.0 | 0.00 | 0.00 | 0.00 | 22 | 1008.5 |
| 20260506122153 | 37 | 185 | 0.0 | 0.0 | 0.00 | 0.00 | 0.00 | 20 | 1008.5 |
| 20260506121924 | 37 | 185 | 0.0 | 0.0 | 0.00 | 0.00 | 0.00 | 19 | 1008.5 |
| 20260506121143 | 37 | 185 | 0.0 | 0.0 | 0.00 | 0.00 | 0.00 | 17 | 1008.5 |
| 20260506120643 | 37 | 185 | 0.0 | 0.0 | 0.00 | 0.00 | 0.00 | 16 | 1008.5 |
| 20260506120141 | 37 | 185 | 0.0 | 0.0 | 0.00 | 0.00 | 0.00 | 14 | 1008.6 |
| 20260506115847 | 37 | 185 | 0.0 | 0.0 | 0.00 | 0.00 | 0.00 | 12 | 1008.5 |
| 20260506115108 | 37 | 185 | 0.0 | 0.0 | 0.00 | 0.00 | 0.00 | 11 | 1008.4 |
| 20260506114837 | 37 | 185 | 0.0 | 0.0 | 0.00 | 0.00 | 0.00 | 8 | 1008.3 |
| 20260506114102 | 37 | 185 | 0.0 | 0.0 | 0.00 | 0.00 | 0.00 | 7 | 1008.4 |
| 20260506113556 | 37 | 185 | 0.0 | 0.0 | 0.00 | 0.00 | 0.00 | 6 | 1008.5 |
| 20260506113552 | 37 | 185 | 0.0 | 0.0 | 0.00 | 0.00 | 0.00 | 7 | 1008.5 |
| 20260506112813 | 37 | 185 | 0.0 | 0.0 | 0.00 | 0.00 | 0.00 | 6 | 1008.6 |
| 20260506112041 | 37 | 185 | 0.0 | 0.0 | 0.00 | 0.00 | 0.00 | 6 | 1008.6 |
| 20260506111531 | 37 | 185 | 0.0 | 0.0 | 0.00 | 0.00 | 0.00 | 6 | 1008.5 |
| 20260506111231 | 37 | 185 | 0.0 | 0.0 | 0.00 | 0.00 | 0.00 | 6 | 1008.5 |
| 20260506110723 | 37 | 185 | 0.0 | 0.0 | 0.00 | 0.00 | 0.00 | 5 | 1008.5 |
| 20260506105925 | 37 | 185 | 0.0 | 0.0 | 0.00 | 0.00 | 0.00 | 5 | 1008.5 |
| 20260506105646 | 37 | 185 | 0.0 | 0.0 | 0.00 | 0.00 | 0.00 | 5 | 1008.5 |
| 20260506104910 | 37 | 185 | 0.0 | 0.0 | 0.00 | 0.00 | 0.00 | 5 | 1008.4 |
| 20260506104355 | 37 | 185 | 0.0 | 0.0 | 0.00 | 0.00 | 0.00 | 4 | 1008.4 |
| 20260506103848 | 37 | 185 | 0.0 | 0.0 | 0.00 | 0.00 | 0.00 | 4 | 1008.3 |
| 20260506103552 | 37 | 185 | 0.0 | 0.0 | 0.00 | 0.00 | 0.00 | 4 | 1008.2 |
| 20260506102819 | 37 | 185 | 0.0 | 0.0 | 0.00 | 0.00 | 0.00 | 4 | 1008.2 |
| 20260506102319 | 37 | 185 | 0.0 | 0.0 | 0.00 | 0.00 | 0.00 | 4 | 1008.2 |
| 20260506102030 | 37 | 185 | 0.0 | 6.4 | 0.00 | 0.00 | 0.00 | 4 | 1008.2 |
| 20260506101234 | 37 | 185 | 0.0 | 6.4 | 0.00 | 0.00 | 0.00 | 5 | 1008.2 |
| 20260506101000 | 37 | 139 | 0.0 | 3.2 | 0.00 | 0.00 | 0.00 | 5 | 1008.1 |
| 20260506100208 | 37 | 232 | 0.0 | 3.2 | 0.00 | 0.00 | 0.00 | 7 | 1008.0 |
| 20260506095659 | 37 | 232 | 0.0 | 9.7 | 0.00 | 0.00 | 0.00 | 7 | 1008.0 |
| 20260506095156 | 37 | 232 | 0.0 | 9.7 | 0.00 | 0.00 | 0.00 | 9 | 1007.9 |
| 20260506094648 | 37 | 168 | 1.6 | 11.3 | 0.00 | 0.00 | 0.00 | 10 | 1007.8 |
| 20260506094148 | 37 | 139 | 4.8 | 11.3 | 0.00 | 0.00 | 0.00 | 9 | 1007.8 |
| 20260506093646 | 37 | 195 | 1.6 | 8.0 | 0.00 | 0.00 | 0.00 | 7 | 1007.7 |
| 20260506093416 | 37 | 187 | 1.6 | 8.0 | 0.00 | 0.00 | 0.00 | 5 | 1007.7 |
| 20260506092644 | 37 | 168 | 0.0 | 8.0 | 0.00 | 0.00 | 0.00 | 3 | 1007.7 |
| 20260506092144 | 37 | 180 | 0.0 | 1.6 | 0.00 | 0.00 | 0.00 | 2 | 1007.6 |
| 20260506091643 | 37 | 180 | 0.0 | 12.9 | 0.00 | 0.00 | 0.00 | 2 | 1007.5 |
| 20260506091143 | 37 | 180 | 1.6 | 12.9 | 0.00 | 0.00 | 0.00 | 1 | 1007.4 |
| 20260506090915 | 37 | 160 | 0.0 | 12.9 | 0.00 | 0.00 | 0.00 | 1 | 1007.3 |
| 20260506090127 | 37 | 133 | 6.4 | 12.9 | 0.00 | 0.00 | 0.00 | 100 | 1007.2 |
| 20260506085605 | 37 | 109 | 0.0 | 0.0 | 0.00 | 0.00 | 0.00 | 100 | 1007.2 |
| 20260506085039 | 37 | 109 | 0.0 | 8.0 | 0.00 | 0.00 | 0.00 | 100 | 1007.2 |
| 20260506084528 | 37 | 109 | 0.0 | 8.0 | 0.00 | 0.00 | 0.00 | 100 | 1007.3 |
| 20260506084022 | 37 | 118 | 3.2 | 14.5 | 0.00 | 0.00 | 0.00 | 100 | 1007.2 |
| 20260506083514 | 37 | 164 | 4.8 | 14.5 | 0.00 | 0.00 | 0.00 | 100 | 1007.2 |
| 20260506083010 | 37 | 156 | 3.2 | 16.1 | 0.00 | 0.00 | 0.00 | 100 | 1007.2 |
| 20260506082509 | 37 | 194 | 6.4 | 19.3 | 0.00 | 0.00 | 0.00 | 100 | 1007.2 |
| 20260506082009 | 37 | 175 | 6.4 | 19.3 | 0.00 | 0.00 | 0.00 | 100 | 1007.2 |
| 20260506081506 | 37 | 172 | 4.8 | 9.7 | 0.00 | 0.00 | 0.00 | 100 | 1007.2 |
| 20260506080959 | 37 | 42 | 0.0 | 11.3 | 0.00 | 0.00 | 0.00 | 100 | 1007.2 |
| 20260506080450 | 37 | 154 | 3.2 | 11.3 | 0.00 | 0.00 | 0.00 | 100 | 1007.2 |
| 20260506073445 | 37 | 54 | 6.4 | 14.5 | 0.00 | 0.00 | 0.00 | 100 | 1007.5 |
| 20260506072944 | 37 | 146 | 0.0 | 14.5 | 0.00 | 0.00 | 0.00 | 100 | 1007.6 |
| 20260506072715 | 37 | 146 | 6.4 | 17.7 | 0.00 | 0.00 | 0.00 | 100 | 1007.6 |
| 20260506071944 | 37 | 80 | 0.0 | 17.7 | 0.00 | 0.00 | 0.00 | 100 | 1007.7 |
| 20260506071444 | 37 | 150 | 4.8 | 19.3 | 0.00 | 0.00 | 0.00 | 100 | 1007.7 |
| 20260506070944 | 37 | 156 | 6.4 | 19.3 | 0.00 | 0.00 | 0.00 | 100 | 1007.7 |
| 20260506070443 | 37 | 139 | 3.2 | 17.7 | 0.00 | 0.00 | 0.00 | 100 | 1007.7 |
| 20260506062213 | 37 | 149 | 8.0 | 14.5 | 0.00 | 0.00 | 0.00 | 100 | 1007.8 |
| 20260506061442 | 37 | 127 | 6.4 | 12.9 | 0.00 | 0.00 | 0.00 | 100 | 1007.9 |
| 20260506060942 | 37 | 123 | 0.0 | 19.3 | 0.00 | 0.00 | 0.00 | 100 | 1007.6 |
| 20260506060443 | 37 | 149 | 6.4 | 19.3 | 0.00 | 0.00 | 0.00 | 100 | 1007.5 |
| 20260506050914 | 37 | 170 | 6.4 | 11.3 | 0.00 | 0.00 | 0.00 | 100 | 1007.7 |
| 20260506050414 | 37 | 109 | 1.6 | 9.7 | 0.00 | 0.00 | 0.00 | 100 | 1007.7 |
| 20260506044859 | 37 | 137 | 3.2 | 9.7 | 0.00 | 0.00 | 0.00 | 100 | 1007.7 |
| 20260506044357 | 37 | 135 | 0.0 | 9.7 | 0.00 | 0.00 | 0.00 | 100 | 1007.6 |
| 20260506044128 | 37 | 189 | 0.0 | 11.3 | 0.00 | 0.00 | 0.00 | 100 | 1007.6 |
| 20260506043354 | 37 | 118 | 6.4 | 12.9 | 0.00 | 0.00 | 0.00 | 100 | 1007.7 |
| 20260506042850 | 37 | 170 | 6.4 | 12.9 | 0.00 | 0.00 | 0.00 | 100 | 1007.7 |
| 20260506042345 | 37 | 146 | 0.0 | 14.5 | 0.00 | 0.00 | 0.00 | 100 | 1007.7 |
| 20260506041840 | 37 | 136 | 4.8 | 14.5 | 0.00 | 0.00 | 0.00 | 100 | 1007.6 |
| 20260506041336 | 37 | 133 | 0.0 | 9.7 | 0.00 | 0.00 | 0.00 | 100 | 1007.6 |
| 20260506041323 | 37 | 130 | 3.2 | 9.7 | 0.00 | 0.00 | 0.00 | 100 | 1007.6 |
| 20260506040321 | 37 | 168 | 0.0 | 12.9 | 0.00 | 0.00 | 0.00 | 100 | 1007.5 |
| 20260506035821 | 37 | 154 | 4.8 | 12.9 | 0.00 | 0.00 | 0.00 | 100 | 1007.5 |
| 20260506035321 | 37 | 194 | 6.4 | 11.3 | 0.00 | 0.00 | 0.00 | 100 | 1007.5 |
| 20260506034822 | 37 | 143 | 3.2 | 16.1 | 0.00 | 0.00 | 0.00 | 100 | 1007.4 |
| 20260506034304 | 37 | 147 | 8.0 | 16.1 | 0.00 | 0.00 | 0.00 | 100 | 1007.3 |
| 20260506034035 | 37 | 109 | 6.4 | 9.7 | 0.00 | 0.00 | 0.00 | 100 | 1007.2 |
| 20260506033304 | 37 | 127 | 3.2 | 12.9 | 0.00 | 0.00 | 0.00 | 100 | 1007.4 |
| 20260506032805 | 38 | 143 | 4.8 | 14.5 | 0.00 | 0.00 | 0.00 | 100 | 1007.4 |
| 20260506032255 | 37 | 150 | 0.0 | 14.5 | 0.00 | 0.00 | 0.00 | 100 | 1007.3 |
| 20260506031750 | 38 | 191 | 3.2 | 14.5 | 0.00 | 0.00 | 0.00 | 100 | 1007.3 |
| 20260506031250 | 38 | 158 | 8.0 | 14.5 | 0.00 | 0.00 | 0.00 | 100 | 1007.2 |
| 20260506030750 | 38 | 129 | 1.6 | 11.3 | 0.00 | 0.00 | 0.00 | 100 | 1007.2 |
| 20260506030517 | 38 | 149 | 0.0 | 11.3 | 0.00 | 0.00 | 0.00 | 100 | 1007.1 |
| 20260506025744 | 38 | 127 | 1.6 | 9.7 | 0.00 | 0.00 | 0.00 | 100 | 1007.1 |
| 20260506025244 | 38 | 163 | 0.0 | 9.7 | 0.00 | 0.00 | 0.00 | 100 | 1006.9 |
| 20260506024743 | 38 | 106 | 0.0 | 4.8 | 0.00 | 0.00 | 0.00 | 100 | 1006.8 |
| 20260506024243 | 38 | 106 | 0.0 | 0.0 | 0.00 | 0.00 | 0.00 | 100 | 1006.7 |
| 20260506023739 | 38 | 106 | 0.0 | 0.0 | 0.00 | 0.00 | 0.00 | 100 | 1006.7 |
| 20260506023229 | 38 | 106 | 0.0 | 1.6 | 0.00 | 0.00 | 0.00 | 100 | 1006.5 |
| 20260506022718 | 38 | 106 | 0.0 | 4.8 | 0.00 | 0.00 | 0.00 | 100 | 1006.3 |
| 20260506022217 | 38 | 106 | 0.0 | 4.8 | 0.00 | 0.00 | 0.00 | 100 | 1006.2 |
| 20260506021718 | 38 | 140 | 0.0 | 0.0 | 0.00 | 0.00 | 0.00 | 100 | 1006.2 |
| 20260506021214 | 38 | 140 | 0.0 | 0.0 | 0.00 | 0.00 | 0.00 | 100 | 1006.1 |
| 20260506020712 | 38 | 140 | 0.0 | 1.6 | 0.00 | 0.00 | 0.00 | 100 | 1006.1 |
| 20260506020213 | 38 | 140 | 0.0 | 6.4 | 0.00 | 0.00 | 0.00 | 100 | 1005.8 |
| 20260506015713 | 38 | 140 | 1.6 | 6.4 | 0.00 | 0.00 | 0.00 | 100 | 1005.7 |
| 20260506015208 | 38 | 156 | 0.0 | 4.8 | 0.00 | 0.00 | 0.00 | 100 | 1005.6 |
| 20260506014703 | 38 | 167 | 0.0 | 8.0 | 0.00 | 0.00 | 0.00 | 100 | 1005.7 |
| 20260506014201 | 38 | 167 | 1.6 | 8.0 | 0.00 | 0.00 | 0.00 | 100 | 1005.6 |
| 20260506013918 | 38 | 147 | 0.0 | 0.0 | 0.00 | 0.00 | 0.00 | 100 | 1005.6 |
| 20260506013123 | 38 | 147 | 0.0 | 0.0 | 0.00 | 0.00 | 0.00 | 100 | 1005.6 |
| 20260506012616 | 38 | 147 | 0.0 | 8.0 | 0.00 | 0.00 | 0.00 | 100 | 1005.6 |
| 20260506012111 | 38 | 147 | 0.0 | 8.0 | 0.00 | 0.00 | 0.00 | 100 | 1005.5 |
| 20260506011556 | 38 | 125 | 0.0 | 8.0 | 0.00 | 0.00 | 0.00 | 100 | 1005.5 |
| 20260506011056 | 38 | 151 | 4.8 | 8.0 | 0.00 | 0.00 | 0.00 | 100 | 1005.6 |
| 20260506010554 | 38 | 153 | 0.0 | 0.0 | 0.00 | 0.00 | 0.00 | 100 | 1005.6 |
| 20260506010049 | 38 | 153 | 0.0 | 0.0 | 0.00 | 0.00 | 0.00 | 100 | 1005.6 |
| 20260506005535 | 38 | 153 | 0.0 | 0.0 | 0.00 | 0.00 | 0.00 | 100 | 1005.6 |
| 20260506005034 | 38 | 153 | 0.0 | 0.0 | 0.00 | 0.00 | 0.00 | 100 | 1005.6 |
| 20260506004535 | 38 | 153 | 0.0 | 0.0 | 0.00 | 0.00 | 0.00 | 100 | 1005.5 |
| 20260506004033 | 38 | 153 | 0.0 | 0.0 | 0.00 | 0.00 | 0.00 | 100 | 1005.6 |
| 20260506003534 | 38 | 153 | 0.0 | 0.0 | 0.00 | 0.00 | 0.00 | 100 | 1005.6 |
| 20260506003019 | 38 | 153 | 0.0 | 9.7 | 0.00 | 0.00 | 0.00 | 100 | 1005.5 |
| 20260506002514 | 38 | 153 | 0.0 | 9.7 | 0.00 | 0.00 | 0.00 | 100 | 1005.5 |
| 20260506002245 | 38 | 102 | 0.0 | 3.2 | 0.00 | 0.00 | 0.00 | 100 | 1005.6 |
| 20260506001503 | 38 | 119 | 0.0 | 3.2 | 0.00 | 0.00 | 0.00 | 100 | 1005.6 |
| 20260506001003 | 38 | 119 | 0.0 | 6.4 | 0.00 | 0.00 | 0.00 | 100 | 1005.5 |
| 20260506000455 | 38 | 119 | 0.0 | 9.7 | 0.00 | 0.00 | 0.00 | 100 | 1005.5 |
| 20260505235943 | 38 | 160 | 1.6 | 9.7 | 0.00 | 0.00 | 0.00 | 100 | 1005.5 |
| 20260505235443 | 38 | 102 | 3.2 | 9.7 | 0.00 | 0.00 | 0.00 | 100 | 1005.4 |
| 20260505235149 | 38 | 161 | 1.6 | 14.5 | 0.00 | 0.00 | 0.00 | 100 | 1005.3 |
| 20260505234404 | 38 | 205 | 6.4 | 16.1 | 0.00 | 0.00 | 0.00 | 100 | 1005.2 |
| 20260505234135 | 38 | 167 | 6.4 | 16.1 | 0.00 | 0.00 | 0.00 | 100 | 1005.1 |
| 20260505233635 | 38 | 201 | 9.7 | 16.1 | 0.00 | 0.00 | 0.00 | 100 | 1005.1 |
| 20260505232904 | 38 | 158 | 8.0 | 17.7 | 0.00 | 0.00 | 0.00 | 100 | 1005.1 |
| 20260505232402 | 38 | 177 | 9.7 | 17.7 | 0.00 | 0.00 | 0.00 | 100 | 1005.2 |
| 20260505231902 | 38 | 216 | 3.2 | 14.5 | 0.00 | 0.00 | 0.00 | 100 | 1005.2 |
| 20260505231402 | 38 | 168 | 8.0 | 16.1 | 0.00 | 0.00 | 0.00 | 100 | 1005.1 |
| 20260505230901 | 39 | 178 | 8.0 | 19.3 | 0.00 | 0.00 | 0.00 | 100 | 1005.1 |
| 20260505230400 | 38 | 208 | 6.4 | 19.3 | 0.00 | 0.00 | 0.00 | 100 | 1005.1 |
| 20260505230130 | 39 | 156 | 3.2 | 14.5 | 0.00 | 0.00 | 0.00 | 100 | 1005.1 |
| 20260505225402 | 39 | 180 | 3.2 | 17.7 | 0.00 | 0.00 | 0.00 | 100 | 1004.9 |
| 20260505225358 | 39 | 139 | 6.4 | 16.1 | 0.00 | 0.00 | 0.00 | 100 | 1005.0 |
| 20260505224356 | 39 | 160 | 4.8 | 17.7 | 0.00 | 0.00 | 0.00 | 100 | 1005.0 |
| 20260505223853 | 39 | 201 | 4.8 | 14.5 | 0.00 | 0.00 | 0.00 | 100 | 1004.9 |
| 20260505223353 | 39 | 160 | 8.0 | 16.1 | 0.00 | 0.00 | 0.00 | 100 | 1004.9 |
| 20260505222853 | 39 | 170 | 9.7 | 16.1 | 0.00 | 0.00 | 0.00 | 100 | 1004.9 |
| 20260505222353 | 39 | 182 | 6.4 | 22.5 | 0.00 | 0.00 | 0.00 | 100 | 1004.8 |
| 20260505221853 | 39 | 195 | 6.4 | 22.5 | 0.00 | 0.00 | 0.00 | 100 | 1004.9 |
| 20260505221353 | 39 | 217 | 8.0 | 17.7 | 0.00 | 0.00 | 0.00 | 100 | 1005.0 |
| 20260505220852 | 39 | 191 | 8.0 | 17.7 | 0.00 | 0.00 | 0.00 | 100 | 1005.0 |
| 20260505220353 | 39 | 156 | 4.8 | 16.1 | 0.00 | 0.00 | 0.00 | 100 | 1005.0 |
| 20260505215857 | 39 | 203 | 0.0 | 16.1 | 0.00 | 0.00 | 0.00 | 100 | 1005.0 |
| 20260505215851 | 38 | 157 | 8.0 | 16.1 | 0.00 | 0.00 | 0.00 | 100 | 1005.0 |
| 20260505215121 | 39 | 198 | 6.4 | 17.7 | 0.00 | 0.00 | 0.00 | 100 | 1005.1 |
| 20260505214348 | 39 | 129 | 8.0 | 17.7 | 0.00 | 0.00 | 0.00 | 100 | 1005.3 |
| 20260505213848 | 39 | 167 | 9.7 | 17.7 | 0.00 | 0.00 | 0.00 | 100 | 1005.4 |
| 20260505213348 | 39 | 118 | 6.4 | 16.1 | 0.00 | 0.00 | 0.00 | 100 | 1005.3 |
| 20260505212848 | 39 | 150 | 4.8 | 16.1 | 0.00 | 0.00 | 0.00 | 100 | 1005.2 |
| 20260505212347 | 38 | 150 | 8.0 | 16.1 | 0.00 | 0.00 | 0.00 | 100 | 1005.4 |
| 20260505212117 | 38 | 151 | 8.0 | 16.1 | 0.00 | 0.00 | 0.00 | 100 | 1005.5 |